Temp
15 15 15 15 15 15 15 15 16 16 16 16 16 15 15 15 15 16 15 15 15 15 15 15 15 15 15 14 14 14 14 14 14 14 14 14 14 14 14 13 13 13 13
15 15 15 15 15 15 15 15 15 15 15 15 15 15 15 15 15 15 15 15 15 15 15 15 14 14 14 14 14 14 14 14 13 14 14 14 13 12 12 12 12 12 11
15 15 15 15 15 15 15 15 15 15 15 15 15 15 15 15 15 15 15 15 15 15 14 14 14 14 13 13 13 13 14 14 14 14 13 11 11 11 12 12 12 11 12
16 15 15 15 15 15 15 15 15 15 15 15 15 15 15 15 15 15 15 14 15 14 14 14 13 14 13 13 13 13 13 14 15 15 13 11 10 11 11 12 13 12 12
15 15 15 15 15 15 15 15 15 15 16 15 14 15 15 14 14 15 15 15 15 14 14 14 14 13 13 13 13 13 13 14 14 15 14 12 11 10 12 13 12 12 12
15 15 15 15 15 15 15 15 15 15 16 15 14 14 14 15 15 14 14 14 14 14 13 13 13 13 13 13 13 13 13 14 14 14 14 12 11 10 10 12 12 12 13
15 15 14 15 15 14 15 15 15 15 15 15 14 14 14 14 14 15 15 14 14 14 13 13 12 13 13 13 12 13 13 14 14 14 13 12 11 11 12 13 13 13 14
15 14 14 14 14 14 15 14 14 15 14 14 13 14 14 14 14 14 14 14 13 13 13 13 12 12 12 12 12 12 13 14 14 14 13 12 11 12 12 13 14 14 14
14 14 14 14 14 14 14 14 14 14 14 14 13 13 14 14 14 14 13 13 13 13 13 12 12 12 12 12 12 13 13 13 14 13 13 13 12 12 12 13 13 13 14
14 14 14 13 14 13 13 13 13 13 13 13 14 14 14 14 14 14 13 13 13 13 12 12 12 12 11 12 12 12 13 13 13 14 13 12 12 11 12 12 12 13 13
13 13 13 13 13 13 13 12 12 12 14 14 14 14 14 14 13 13 13 13 13 13 12 12 12 12 12 12 12 12 12 13 13 13 12 11 11 11 11 11 12 13 13
13 12 13 13 13 12 12 11 11 13 13 14 13 14 13 13 13 13 13 12 12 12 12 12 12 12 11 11 11 11 12 13 13 13 11 10 11 10 11 12 13 13 13
13 12 13 12 12 12 11 11 12 12 13 13 13 13 13 13 12 12 12 12 12 12 12 12 12 12 11 11 11 12 12 12 13 12 12 11 9 9 12 13 13 13 13
12 12 12 11 11 11 11 11 12 12 13 13 13 12 12 12 12 12 12 12 12 12 12 11 12 11 11 11 11 12 12 12 12 12 12 12 12 12 13 13 13 13 13
13 12 12 12 11 11 12 12 12 12 13 12 12 11 12 12 12 12 12 11 11 12 12 12 12 11 11 12 11 12 12 12 12 12 12 12 12 12 12 12 12 12 12
13 13 11 11 11 11 12 12 12 12 12 12 11 11 11 11 11 11 11 11 12 11 12 12 12 12 11 11 11 11 11 12 12 12 12 12 12 12 12 12 12 12 12
13 13 12 12 11 12 12 12 11 12 12 12 11 11 11 11 11 11 11 11 11 11 11 11 11 11 11 11 11 11 11 12 12 12 11 11 12 12 12 12 12 12 12
14 13 12 12 12 12 12 12 12 12 11 11 11 11 11 10 10 11 11 11 11 11 11 11 11 11 11 11 11 11 12 11 11 11 11 11 12 12 11 11 11 11 11
14 13 13 12 12 13 12 12 12 12 12 11 11 10 10 10 10 11 11 11 11 11 11 11 11 11 11 11 11 11 11 10 10 11 11 11 11 11 11 11 11 11 11
13 13 12 12 12 12 12 12 11 11 11 11 11 10 10 10 10 10 10 11 11 11 11 11 11 11 11 11 10 10 9 9 10 10 10 10 10 11 11 11 11 11 10
14 13 13 12 12 12 11 12 12 11 11 11 11 11 10 10 10 10 10 10 11 11 11 11 11 11 11 10 10 9 9 8 8 9 9 9 10 10 10 10 10 10 10
14 13 13 13 13 12 12 12 11 11 11 11 11 11 11 10 10 10 10 10 11 11 11 11 11 11 10 10 10 10 8 8 8 8 9 9 9 10 10 10 9 9 9
13 13 13 13 13 13 12 12 11 11 11 11 11 11 11 11 10 10 10 10 10 10 11 11 10 10 11 10 10 10 9 9 8 8 9 9 9 9 9 9 9 8 8
13 13 13 13 13 12 12 11 11 11 11 11 11 11 11 11 10 10 10 10 10 11 11 11 11 11 10 10 10 10 10 10 9 9 8 8 8 8 9 8 8 8 8
13 13 13 12 12 12 12 12 11 11 12 12 11 11 11 11 10 10 10 10 10 11 11 11 11 11 11 11 10 10 10 10 10 10 10 9 8 8 8 8 8 7 7
13 13 13 13 13 12 11 12 11 11 12 12 11 11 11 11 10 10 10 10 10 10 11 11 11 11 11 11 11 11 11 11 11 10 10 10 9 8 7 7 7 7 7
Height
1533 1536 1538 1540 1541 1542 1543 1545 1546 1548 1549 1551 1553 1554 1555 1556 1556 1557 1558 1559 1560 1560 1560 1561 1561 1562 1563 1563 1563 1563 1563 1563 1563 1563 1563 1563 1562 1565 1563 1563 1562 1560 1560
1531 1537 1539 1540 1542 1543 1544 1546 1548 1550 1552 1554 1555 1556 1557 1558 1559 1559 1561 1561 1561 1562 1562 1564 1564 1565 1566 1566 1567 1567 1567 1567 1567 1566 1567 1566 1567 1566 1565 1564 1563 1563 1563
1532 1537 1539 1541 1543 1545 1546 1548 1550 1553 1554 1556 1557 1557 1559 1561 1561 1561 1563 1562 1563 1564 1564 1566 1567 1568 1569 1569 1569 1570 1570 1570 1569 1568 1568 1568 1568 1568 1566 1565 1565 1565 1565
1533 1537 1539 1542 1544 1546 1547 1550 1553 1554 1556 1559 1559 1560 1561 1563 1563 1563 1564 1565 1565 1565 1566 1568 1570 1570 1570 1571 1571 1571 1572 1572 1571 1570 1569 1569 1570 1569 1569 1568 1567 1567 1567
1535 1538 1540 1544 1545 1546 1550 1552 1554 1556 1557 1559 1561 1563 1563 1564 1565 1565 1567 1567 1567 1569 1569 1570 1572 1573 1573 1573 1574 1574 1574 1574 1573 1572 1571 1571 1571 1571 1570 1570 1570 1570 1570
1536 1539 1542 1545 1546 1548 1551 1555 1556 1557 1557 1560 1562 1563 1565 1566 1567 1568 1569 1569 1571 1572 1572 1573 1575 1575 1575 1576 1576 1576 1577 1576 1575 1575 1573 1574 1574 1574 1574 1574 1574 1574 1574
1536 1540 1543 1546 1548 1551 1551 1556 1559 1558 1560 1563 1565 1566 1567 1568 1569 1570 1570 1572 1573 1574 1575 1576 1577 1576 1577 1578 1578 1579 1579 1579 1577 1577 1576 1577 1577 1577 1577 1577 1577 1577 1577
1537 1541 1545 1547 1550 1553 1554 1557 1559 1560 1562 1564 1566 1567 1568 1569 1571 1572 1573 1574 1575 1575 1577 1579 1580 1579 1579 1580 1581 1582 1582 1581 1580 1579 1580 1580 1581 1579 1580 1580 1580 1580 1580
1539 1542 1545 1549 1552 1554 1556 1558 1560 1562 1564 1566 1568 1569 1570 1571 1572 1573 1575 1576 1577 1578 1579 1581 1582 1582 1581 1582 1584 1584 1583 1584 1583 1582 1583 1582 1582 1582 1582 1582 1583 1582 1582
1541 1544 1547 1550 1553 1556 1559 1560 1562 1563 1565 1567 1569 1570 1572 1573 1575 1576 1577 1578 1579 1580 1582 1583 1584 1584 1583 1585 1586 1586 1586 1586 1586 1584 1584 1584 1584 1584 1584 1585 1585 1584 1583
1541 1546 1549 1551 1554 1557 1560 1562 1563 1565 1567 1569 1571 1572 1574 1576 1577 1578 1579 1580 1582 1583 1584 1584 1585 1585 1586 1587 1588 1588 1589 1588 1588 1586 1586 1587 1587 1587 1587 1587 1586 1585 1585
1541 1546 1549 1552 1555 1558 1562 1563 1565 1566 1569 1571 1572 1574 1576 1577 1578 1579 1581 1582 1583 1584 1584 1585 1586 1587 1587 1588 1589 1590 1590 1589 1589 1588 1589 1589 1589 1590 1589 1588 1588 1588 1588
1542 1545 1549 1553 1557 1560 1562 1563 1565 1568 1569 1571 1574 1575 1577 1578 1579 1580 1582 1583 1584 1585 1586 1587 1588 1590 1589 1589 1590 1591 1591 1591 1590 1591 1591 1591 1592 1592 1590 1590 1591 1590 1589
1542 1545 1549 1553 1557 1560 1562 1565 1567 1569 1571 1573 1574 1576 1578 1579 1580 1582 1583 1584 1585 1586 1587 1588 1589 1590 1590 1590 1591 1592 1592 1592 1592 1593 1593 1593 1593 1593 1593 1593 1592 1592 1590
1542 1546 1549 1553 1557 1560 1563 1565 1568 1570 1572 1574 1575 1578 1579 1580 1581 1582 1583 1585 1585 1587 1588 1588 1589 1590 1590 1591 1592 1593 1593 1593 1593 1594 1594 1595 1595 1595 1595 1594 1594 1592 1591
1542 1546 1550 1553 1558 1561 1563 1566 1568 1571 1572 1574 1576 1578 1579 1580 1581 1582 1584 1585 1586 1587 1588 1589 1590 1591 1591 1592 1593 1594 1594 1594 1594 1595 1595 1596 1596 1596 1596 1596 1595 1593 1591
1542 1546 1550 1554 1559 1562 1565 1567 1569 1571 1573 1574 1576 1577 1579 1580 1582 1583 1585 1586 1587 1588 1589 1590 1590 1591 1592 1593 1594 1594 1595 1595 1595 1596 1596 1597 1597 1597 1597 1596 1595 1594 1592
1543 1546 1551 1555 1559 1563 1565 1568 1570 1572 1573 1575 1576 1577 1579 1581 1582 1584 1585 1586 1587 1588 1589 1590 1590 1591 1593 1593 1593 1594 1595 1596 1596 1597 1598 1598 1598 1598 1598 1597 1595 1594 1592
1542 1546 1550 1554 1558 1562 1566 1568 1571 1572 1574 1575 1576 1577 1579 1580 1582 1584 1585 1586 1586 1587 1588 1589 1590 1591 1592 1593 1594 1594 1595 1596 1597 1598 1598 1599 1598 1598 1597 1597 1595 1594 1592
1542 1546 1550 1554 1558 1561 1565 1568 1570 1572 1574 1575 1576 1577 1579 1580 1581 1582 1583 1585 1586 1587 1588 1589 1590 1591 1592 1593 1593 1595 1596 1597 1597 1598 1599 1599 1598 1598 1597 1596 1595 1594 1591
1540 1544 1548 1552 1555 1559 1563 1565 1568 1570 1572 1574 1576 1577 1578 1579 1580 1581 1583 1584 1585 1586 1587 1588 1589 1590 1591 1592 1593 1595 1596 1597 1598 1598 1598 1598 1598 1598 1597 1596 1594 1592 1590
1536 1540 1545 1549 1553 1557 1561 1563 1566 1569 1571 1573 1574 1575 1576 1578 1579 1581 1582 1583 1584 1585 1586 1587 1588 1589 1590 1591 1592 1594 1596 1598 1596 1597 1597 1597 1597 1597 1596 1594 1593 1591 1589
1532 1536 1541 1545 1549 1553 1557 1561 1564 1568 1570 1570 1571 1573 1574 1576 1577 1579 1580 1581 1582 1583 1585 1586 1587 1587 1588 1590 1591 1592 1593 1593 1594 1594 1595 1595 1596 1595 1594 1593 1591 1589 1587
1527 1534 1539 1542 1546 1550 1554 1557 1559 1561 1563 1566 1568 1571 1573 1574 1575 1577 1578 1579 1580 1582 1583 1584 1585 1586 1587 1588 1589 1590 1590 1590 1590 1592 1592 1592 1592 1592 1592 1590 1588 1587 1585
1525 1529 1535 1540 1544 1547 1550 1553 1555 1558 1560 1564 1567 1569 1570 1572 1573 1574 1575 1577 1578 1579 1580 1581 1582 1583 1583 1584 1585 1586 1588 1588 1588 1588 1587 1588 1589 1589 1589 1588 1587 1585 1583
1522 1527 1532 1536 1539 1543 1545 1548 1550 1553 1557 1560 1563 1565 1567 1569 1570 1571 1573 1574 1575 1576 1577 1578 1579 1580 1580 1581 1581 1582 1583 1585 1584 1585 1585 1585 1587 1587 1586 1585 1584 1583 1581
Wind_Speed
17 18 20 20 19 19 18 19 20 21 25 24 23 22 22 22 22 20 20 20 20 21 23 21 23 24 23 23 23 23 23 23 23 22 20 19 19 18 18 19 20 21 21
23 20 21 20 20 20 20 21 22 24 24 23 21 22 22 22 22 22 20 20 20 20 22 23 23 23 21 22 21 21 19 19 19 18 17 18 19 20 20 21 22 22 21
24 22 22 21 21 21 22 23 23 24 22 21 20 20 20 20 20 20 20 20 19 20 21 21 21 21 21 20 17 18 17 13 16 17 19 21 21 21 19 21 21 22 22
25 24 23 23 24 25 25 23 23 23 22 19 18 19 21 20 20 20 20 19 18 18 20 21 21 21 20 18 15 13 12 13 14 16 20 21 21 21 22 22 22 22 23
25 23 24 25 26 27 25 23 21 20 19 18 18 17 19 19 18 18 17 17 18 19 21 20 18 18 18 15 15 15 15 14 15 16 20 20 22 21 21 21 22 22 22
27 25 26 27 27 23 17 18 19 20 16 19 19 20 19 17 18 17 17 17 18 19 20 20 19 16 15 14 15 16 15 14 15 18 20 21 22 21 21 21 21 21 20
29 27 26 24 22 22 21 20 20 22 22 22 20 19 18 19 18 16 15 16 17 19 20 21 19 15 15 11 13 15 14 13 15 17 19 20 20 21 20 20 20 19 18
29 28 26 25 24 23 23 21 21 22 21 19 19 19 18 17 17 16 15 15 17 18 20 20 19 15 13 10 10 12 12 12 14 17 19 20 19 20 19 19 18 18 18
29 28 27 25 24 21 19 18 21 21 20 20 19 18 16 16 16 16 16 18 17 17 19 19 18 14 11 8 9 10 13 12 13 17 18 19 18 19 18 18 18 18 18
29 28 28 27 25 22 18 17 18 20 20 20 18 16 15 15 15 15 16 17 16 18 21 20 20 17 11 9 8 10 11 12 13 16 17 17 17 17 17 17 18 17 17
28 27 27 26 24 22 20 19 19 19 20 19 17 15 14 14 15 16 15 15 16 17 19 20 19 17 12 8 8 10 9 12 12 15 16 16 16 16 16 17 17 16 16
31 28 26 25 23 23 21 19 19 19 19 19 18 16 13 14 15 15 14 14 14 14 15 16 16 14 10 7 6 6 9 11 11 13 16 15 14 15 16 16 15 15 15
31 29 27 26 25 24 22 20 18 20 18 17 15 15 15 13 13 13 13 13 13 13 12 12 12 12 10 6 6 6 9 9 10 11 13 13 16 15 14 14 14 14 15
31 29 27 26 25 23 22 20 19 18 16 14 14 13 14 14 14 13 13 13 11 11 10 10 10 10 10 9 6 6 7 9 9 9 11 11 12 13 12 12 13 14 15
31 27 26 27 24 23 19 19 19 16 14 13 12 14 12 11 11 13 12 11 11 10 9 10 10 10 9 8 6 5 7 8 8 9 10 11 11 10 10 11 12 13 15
28 24 28 25 23 21 19 19 15 15 12 12 13 13 11 11 11 9 11 10 10 8 9 9 9 10 10 7 6 6 6 7 8 8 9 10 9 8 9 10 10 12 14
29 23 24 24 23 21 15 16 12 12 11 12 13 12 9 9 8 8 9 9 9 9 10 9 9 10 9 9 7 6 6 6 7 8 9 8 7 7 8 8 9 11 12
27 26 26 28 26 20 18 19 15 12 9 12 12 11 11 13 11 11 10 10 10 10 10 11 11 11 10 10 8 7 6 6 6 8 7 6 6 6 6 7 8 10 11
31 29 29 28 27 26 22 19 19 15 11 10 13 13 12 12 11 10 11 10 11 12 12 11 11 9 9 9 9 8 7 5 6 7 6 5 4 4 5 5 7 8 11
31 29 29 27 30 29 25 22 20 20 15 14 10 13 13 12 10 9 10 10 11 11 11 11 9 9 8 9 10 9 6 5 4 5 4 4 2 2 4 5 7 9 11
33 30 30 29 28 28 28 27 25 22 20 18 15 11 14 14 12 9 9 10 11 11 11 11 11 10 11 12 13 11 9 8 7 6 5 3 2 1 4 6 7 9 10
36 35 32 31 31 32 31 30 27 24 22 20 19 15 12 14 16 14 12 10 11 11 11 11 11 13 13 13 13 13 10 9 10 9 7 6 4 4 5 6 7 9 11
39 38 35 34 32 31 32 31 28 26 25 24 24 21 17 13 17 18 14 11 12 12 11 11 11 12 14 16 14 9 7 7 14 13 12 9 8 7 7 7 9 10 11
41 39 37 35 35 34 32 32 33 33 34 31 27 24 21 16 14 16 16 15 14 13 12 12 13 14 15 17 18 19 10 7 10 10 16 13 12 10 9 9 10 11 13
45 44 39 38 37 36 36 35 36 36 32 29 30 28 26 23 21 20 16 16 15 16 14 14 14 14 16 17 20 20 19 13 13 10 11 17 16 13 12 11 11 12 13
44 44 44 43 42 40 40 39 38 38 35 32 32 31 31 27 26 23 21 16 15 16 16 15 14 15 15 16 18 20 21 20 18 16 14 14 15 14 14 14 13 13 14
Wind_Direction
166 160 154 151 147 139 135 131 129 128 130 126 123 120 118 115 113 111 111 110 108 107 105 103 100 101 100 97 97 99 98 98 96 97 98 99 98 99 97 94 90 82 83
153 155 152 149 146 140 135 131 129 129 128 124 122 119 118 117 113 112 110 111 109 109 109 107 104 103 100 95 93 95 97 101 104 103 104 97 87 84 83 83 78 78 74
154 153 150 148 145 139 132 130 129 127 123 122 122 120 119 117 119 115 113 110 110 112 112 112 114 110 101 92 91 84 84 96 109 108 95 86 84 77 80 82 80 79 77
152 152 149 147 143 135 130 128 128 128 120 115 117 120 120 120 119 117 116 112 112 111 121 120 114 107 102 98 89 75 74 82 94 95 93 88 84 83 81 79 80 79 77
152 151 147 145 142 134 129 130 134 133 129 125 119 118 120 120 120 118 117 116 112 114 116 117 115 109 105 100 82 78 81 83 86 87 89 89 86 80 80 81 80 78 77
150 148 144 145 144 141 135 143 140 135 129 135 134 132 131 124 120 118 116 116 116 118 118 118 117 116 108 96 89 84 76 80 83 87 90 89 85 83 81 80 80 80 79
148 146 147 149 148 143 152 148 145 138 135 137 137 135 130 125 120 117 114 116 121 122 123 124 119 110 107 102 81 67 66 81 88 92 91 90 87 85 83 83 82 80 79
147 145 148 144 141 140 138 140 142 141 139 135 133 131 128 124 120 117 115 114 114 117 124 127 124 118 113 102 82 76 70 83 94 95 93 89 87 86 84 83 82 79 75
149 148 146 146 142 140 139 141 146 144 142 138 133 126 128 121 117 115 115 118 114 116 124 126 130 126 124 111 89 74 78 88 94 93 92 90 88 85 85 83 79 78 75
150 149 148 147 146 145 141 142 138 146 146 144 142 135 127 122 121 121 119 115 110 114 123 123 132 133 132 119 94 79 75 89 95 95 94 91 89 86 83 82 80 75 68
149 151 152 152 151 150 144 146 143 152 150 148 140 133 130 132 129 121 117 118 117 119 122 126 132 134 137 118 98 82 85 92 98 98 94 90 88 87 86 84 78 68 60
156 157 157 157 155 150 148 151 146 145 139 139 137 135 135 132 128 125 125 125 124 127 128 130 137 137 140 128 107 85 92 96 97 99 94 91 91 89 86 79 66 63 58
162 159 160 158 158 155 156 155 148 145 145 140 137 138 143 141 135 136 137 134 135 132 131 132 139 142 154 149 127 107 95 100 100 99 98 98 92 92 80 68 63 59 52
166 164 166 164 159 158 161 159 152 153 150 146 141 138 148 147 145 147 146 143 144 141 146 148 146 141 144 151 143 117 99 103 109 106 100 96 96 84 73 65 58 53 47
170 171 171 164 165 164 156 155 158 163 160 157 151 151 158 158 157 153 157 155 155 152 144 142 150 155 159 156 151 129 113 110 115 112 111 107 93 83 71 63 55 49 42
171 175 169 171 170 162 163 164 160 169 165 161 161 163 170 170 164 161 164 164 161 156 153 153 151 153 158 163 157 141 123 117 120 123 122 111 97 81 72 63 54 44 36
173 177 178 171 169 165 168 172 167 167 160 175 174 170 170 184 188 190 180 174 175 169 171 177 171 168 168 170 170 157 143 130 131 133 125 116 99 79 70 60 47 37 27
184 186 183 177 170 172 180 167 182 176 170 176 182 179 182 193 198 197 196 195 190 187 183 180 177 169 166 166 171 161 151 147 147 140 135 124 102 83 71 54 37 27 19
189 189 188 186 176 184 183 182 185 183 190 195 185 180 188 187 189 190 189 192 187 184 180 180 177 176 168 164 168 167 162 154 151 155 154 141 113 73 59 44 28 17 8
191 192 190 192 184 185 188 185 187 189 194 200 194 199 200 200 202 199 194 190 190 187 188 184 186 176 180 179 173 168 164 166 176 170 175 177 148 54 29 16 8 4 1
194 197 195 192 190 191 191 191 193 193 195 198 207 208 210 209 199 202 202 187 190 192 191 192 192 192 184 181 179 171 172 179 189 202 213 210 216 331 357 352 350 347 345
200 201 200 201 195 196 199 197 197 196 198 201 202 210 215 210 203 202 216 208 205 200 195 196 200 198 194 187 192 180 177 198 209 215 214 229 251 278 317 327 330 329 332
203 204 202 203 203 203 204 202 200 202 206 203 203 205 212 229 214 214 225 224 215 212 213 212 212 213 210 200 195 192 183 209 206 218 223 236 249 260 288 304 312 316 321
205 211 207 206 207 207 208 208 208 208 208 212 212 207 209 218 224 226 230 228 222 220 221 224 222 220 221 219 212 215 219 215 192 205 224 235 240 252 267 285 299 310 313
210 209 212 210 213 212 214 214 212 214 216 218 214 215 215 218 220 224 234 230 224 223 223 226 229 229 229 227 227 226 225 225 219 222 219 222 230 241 256 275 292 300 307
215 215 215 215 216 219 219 219 219 218 219 221 219 221 220 226 229 223 232 234 233 225 225 228 232 235 234 231 230 230 232 230 233 226 231 226 228 235 248 265 279 292 302